Вернуться в каталог

THORAD AGENA D DEB

АктивенPO
NORAD 4868·DEBRIS·🇺🇸 United States

Запущен Apr 8, 1970 с Vandenberg Space Force Base

Loading…

Ближайшие Пролёты

TLE

Source: Space-Track
1 04868U 70025EY  26229.65803782  .00000612  00000-0  43234-3 0  9998
2 04868  99.7157 305.7762 0054312 252.8288 106.6924 14.01577874843823

Отслеживайте THORAD AGENA D DEB в реальном времени с AllMySat

Download on the App Store